| time (UTC) | temp C | wind direction | speed KPH | gust KPH | rain 1hr cm | rain 24hr cm | rain mn cm | humidity % | barometer mb |
| 20260510115917 | 8 | 302 | 4.8 | 9.7 | 0.00 | 0.00 | 0.00 | 60 | 1012.5 |
| 20260510115414 | 7 | 306 | 4.8 | 6.4 | 0.00 | 0.00 | 0.00 | 60 | 1012.5 |
| 20260510114910 | 7 | 286 | 6.4 | 9.7 | 0.00 | 0.00 | 0.00 | 61 | 1012.3 |
| 20260510114408 | 7 | 300 | 4.8 | 4.8 | 0.00 | 0.00 | 0.00 | 61 | 1012.3 |
| 20260510113902 | 7 | 4 | 9.7 | 14.5 | 0.00 | 0.00 | 0.00 | 60 | 1012.2 |
| 20260510113358 | 7 | 284 | 4.8 | 4.8 | 0.00 | 0.00 | 0.00 | 61 | 1012.2 |
| 20260510112856 | 7 | 34 | 1.6 | 1.6 | 0.00 | 0.00 | 0.00 | 62 | 1012.2 |
| 20260510112353 | 7 | 269 | 4.8 | 4.8 | 0.00 | 0.00 | 0.00 | 62 | 1011.9 |
| 20260510111848 | 6 | 313 | 4.8 | 4.8 | 0.00 | 0.00 | 0.00 | 63 | 1011.9 |
| 20260510111345 | 6 | 337 | 6.4 | 9.7 | 0.00 | 0.00 | 0.00 | 64 | 1012.0 |
| 20260510110840 | 6 | 298 | 4.8 | 4.8 | 0.00 | 0.00 | 0.00 | 64 | 1011.7 |
| 20260510110337 | 6 | 300 | 3.2 | 3.2 | 0.00 | 0.00 | 0.00 | 65 | 1011.8 |
| 20260510105834 | 6 | 336 | 3.2 | 3.2 | 0.00 | 0.00 | 0.00 | 65 | 1011.4 |
| 20260510105333 | 6 | 305 | 0.0 | 0.0 | 0.00 | 0.00 | 0.00 | 66 | 1011.5 |
| 20260510104830 | 5 | 289 | 4.8 | 4.8 | 0.00 | 0.00 | 0.00 | 67 | 1011.5 |
| 20260510104327 | 5 | 293 | 1.6 | 3.2 | 0.00 | 0.00 | 0.00 | 68 | 1011.3 |
| 20260510103823 | 5 | 289 | 0.0 | 1.6 | 0.00 | 0.00 | 0.00 | 69 | 1011.3 |
| 20260510103320 | 5 | 245 | 0.0 | 0.0 | 0.00 | 0.00 | 0.00 | 70 | 1011.2 |
| 20260510102815 | 5 | 244 | 0.0 | 0.0 | 0.00 | 0.00 | 0.00 | 70 | 1010.9 |
| 20260510102311 | 5 | 243 | 0.0 | 0.0 | 0.00 | 0.00 | 0.00 | 70 | 1010.8 |
| 20260510101809 | 5 | 243 | 1.6 | 1.6 | 0.00 | 0.00 | 0.00 | 70 | 1010.6 |
| 20260510101307 | 5 | 243 | 0.0 | 0.0 | 0.00 | 0.00 | 0.00 | 70 | 1010.6 |
| 20260510100802 | 5 | 248 | 0.0 | 1.6 | 0.00 | 0.00 | 0.00 | 69 | 1010.6 |
| 20260510100301 | 5 | 249 | 0.0 | 0.0 | 0.00 | 0.00 | 0.00 | 69 | 1010.3 |
| 20260510095756 | 5 | 249 | 1.6 | 1.6 | 0.00 | 0.00 | 0.00 | 68 | 1010.4 |
| 20260510095251 | 5 | 249 | 1.6 | 1.6 | 0.00 | 0.00 | 0.00 | 68 | 1010.1 |
| 20260510094750 | 5 | 244 | 1.6 | 1.6 | 0.00 | 0.00 | 0.00 | 68 | 1010.1 |
| 20260510094246 | 5 | 262 | 1.6 | 1.6 | 0.00 | 0.00 | 0.00 | 67 | 1010.1 |
| 20260510093742 | 5 | 265 | 3.2 | 1.6 | 0.00 | 0.00 | 0.00 | 67 | 1010.0 |
| 20260510093239 | 5 | 261 | 3.2 | 3.2 | 0.00 | 0.00 | 0.00 | 66 | 1009.9 |
| 20260510092735 | 5 | 246 | 4.8 | 4.8 | 0.00 | 0.00 | 0.00 | 67 | 1010.1 |
| 20260510092231 | 6 | 259 | 3.2 | 3.2 | 0.00 | 0.00 | 0.00 | 66 | 1009.9 |
| 20260510091727 | 6 | 244 | 1.6 | 1.6 | 0.00 | 0.00 | 0.00 | 66 | 1009.5 |
| 20260510091224 | 6 | 257 | 1.6 | 1.6 | 0.00 | 0.00 | 0.00 | 65 | 1009.6 |
| 20260510090720 | 6 | 257 | 3.2 | 3.2 | 0.00 | 0.00 | 0.00 | 65 | 1009.7 |
| 20260510090218 | 6 | 262 | 3.2 | 4.8 | 0.00 | 0.00 | 0.00 | 65 | 1009.4 |
| 20260510085712 | 6 | 280 | 4.8 | 4.8 | 0.00 | 0.00 | 0.00 | 65 | 1009.4 |
| 20260510085208 | 6 | 299 | 1.6 | 1.6 | 0.00 | 0.00 | 0.00 | 64 | 1009.4 |
| 20260510084704 | 6 | 324 | 0.0 | 0.0 | 0.00 | 0.00 | 0.00 | 64 | 1009.1 |
| 20260510084201 | 6 | 318 | 3.2 | 1.6 | 0.00 | 0.00 | 0.00 | 63 | 1009.1 |
| 20260510083658 | 7 | 287 | 1.6 | 1.6 | 0.00 | 0.00 | 0.00 | 62 | 1009.1 |
| 20260510083154 | 7 | 347 | 4.8 | 6.4 | 0.00 | 0.00 | 0.00 | 61 | 1009.1 |
| 20260510082650 | 7 | 326 | 3.2 | 3.2 | 0.00 | 0.00 | 0.00 | 61 | 1008.9 |
| 20260510082146 | 7 | 298 | 1.6 | 3.2 | 0.00 | 0.00 | 0.00 | 60 | 1009.1 |
| 20260510081641 | 7 | 285 | 3.2 | 3.2 | 0.00 | 0.00 | 0.00 | 59 | 1008.9 |
| 20260510081137 | 7 | 248 | 6.4 | 9.7 | 0.00 | 0.00 | 0.00 | 59 | 1008.8 |
| 20260510080637 | 7 | 298 | 3.2 | 3.2 | 0.00 | 0.00 | 0.00 | 58 | 1008.7 |
| 20260510080134 | 8 | 343 | 3.2 | 3.2 | 0.00 | 0.00 | 0.00 | 58 | 1008.7 |
| 20260510075631 | 8 | 355 | 4.8 | 4.8 | 0.00 | 0.00 | 0.00 | 57 | 1008.6 |
| 20260510075128 | 8 | 280 | 3.2 | 4.8 | 0.00 | 0.00 | 0.00 | 56 | 1008.7 |
| 20260510074625 | 8 | 315 | 1.6 | 1.6 | 0.00 | 0.00 | 0.00 | 56 | 1008.7 |
| 20260510074120 | 8 | 316 | 3.2 | 3.2 | 0.00 | 0.00 | 0.00 | 55 | 1008.7 |
| 20260510073617 | 8 | 308 | 9.7 | 12.9 | 0.00 | 0.00 | 0.00 | 55 | 1008.6 |
| 20260510073114 | 9 | 313 | 9.7 | 11.3 | 0.00 | 0.00 | 0.00 | 55 | 1008.6 |
| 20260510072610 | 9 | 285 | 6.4 | 9.7 | 0.00 | 0.00 | 0.00 | 59 | 1008.4 |
| 20260510072107 | 9 | 272 | 6.4 | 9.7 | 0.00 | 0.00 | 0.00 | 59 | 1008.3 |
| 20260510071603 | 9 | 285 | 3.2 | 3.2 | 0.00 | 0.00 | 0.00 | 59 | 1008.1 |
| 20260510071101 | 9 | 282 | 3.2 | 3.2 | 0.00 | 0.00 | 0.00 | 59 | 1008.1 |
| 20260510070557 | 9 | 284 | 3.2 | 3.2 | 0.00 | 0.00 | 0.00 | 59 | 1008.1 |
| 20260510070055 | 9 | 295 | 3.2 | 4.8 | 0.00 | 0.00 | 0.00 | 58 | 1008.2 |
| 20260510065551 | 10 | 283 | 6.4 | 9.7 | 0.00 | 0.00 | 0.00 | 58 | 1008.0 |
| 20260510065047 | 10 | 275 | 6.4 | 6.4 | 0.00 | 0.00 | 0.00 | 59 | 1008.1 |
| 20260510064543 | 10 | 275 | 6.4 | 9.7 | 0.00 | 0.00 | 0.00 | 60 | 1008.2 |
| 20260510064040 | 10 | 259 | 6.4 | 9.7 | 0.00 | 0.00 | 0.00 | 60 | 1008.1 |
| 20260510063537 | 10 | 294 | 3.2 | 4.8 | 0.00 | 0.00 | 0.00 | 59 | 1008.0 |
| 20260510063034 | 10 | 259 | 1.6 | 1.6 | 0.00 | 0.00 | 0.00 | 60 | 1007.8 |
| 20260510062530 | 9 | 265 | 3.2 | 4.8 | 0.00 | 0.00 | 0.00 | 60 | 1007.8 |
| 20260510062025 | 10 | 286 | 6.4 | 4.8 | 0.00 | 0.00 | 0.00 | 60 | 1007.8 |
| 20260510061522 | 10 | 266 | 1.6 | 1.6 | 0.00 | 0.00 | 0.00 | 60 | 1007.8 |
| 20260510061019 | 10 | 297 | 3.2 | 4.8 | 0.00 | 0.00 | 0.00 | 60 | 1007.4 |
| 20260510060515 | 10 | 339 | 4.8 | 4.8 | 0.00 | 0.00 | 0.00 | 60 | 1007.4 |
| 20260510060011 | 9 | 264 | 4.8 | 4.8 | 0.00 | 0.00 | 0.00 | 61 | 1007.5 |
| 20260510055507 | 10 | 332 | 1.6 | 1.6 | 0.00 | 0.00 | 0.00 | 63 | 1007.5 |
| 20260510055006 | 10 | 256 | 8.0 | 9.7 | 0.00 | 0.00 | 0.00 | 62 | 1007.6 |
| 20260510054501 | 10 | 266 | 3.2 | 3.2 | 0.00 | 0.00 | 0.00 | 62 | 1007.4 |
| 20260510053956 | 10 | 298 | 0.0 | 1.6 | 0.00 | 0.00 | 0.00 | 62 | 1007.6 |
| 20260510053451 | 10 | 280 | 6.4 | 9.7 | 0.00 | 0.00 | 0.00 | 62 | 1007.3 |
| 20260510052948 | 10 | 293 | 3.2 | 3.2 | 0.00 | 0.00 | 0.00 | 63 | 1007.4 |
| 20260510052444 | 10 | 286 | 1.6 | 1.6 | 0.00 | 0.00 | 0.00 | 64 | 1007.3 |
| 20260510051940 | 10 | 289 | 4.8 | 6.4 | 0.00 | 0.00 | 0.00 | 64 | 1007.2 |
| 20260510051437 | 10 | 261 | 4.8 | 4.8 | 0.00 | 0.00 | 0.00 | 66 | 1007.2 |
| 20260510050933 | 10 | 263 | 3.2 | 4.8 | 0.00 | 0.00 | 0.00 | 67 | 1007.1 |
| 20260510050430 | 10 | 314 | 1.6 | 1.6 | 0.00 | 0.00 | 0.00 | 68 | 1007.1 |
| 20260510045927 | 10 | 292 | 3.2 | 3.2 | 0.00 | 0.00 | 0.00 | 69 | 1007.1 |
| 20260510045424 | 10 | 267 | 3.2 | 3.2 | 0.00 | 0.00 | 0.00 | 70 | 1006.9 |
| 20260510044921 | 10 | 321 | 1.6 | 1.6 | 0.00 | 0.00 | 0.00 | 71 | 1006.6 |
| 20260510044418 | 10 | 289 | 3.2 | 3.2 | 0.00 | 0.00 | 0.00 | 72 | 1006.5 |
| 20260510043915 | 10 | 261 | 1.6 | 1.6 | 0.00 | 0.00 | 0.00 | 72 | 1006.7 |
| 20260510043411 | 10 | 273 | 1.6 | 1.6 | 0.00 | 0.00 | 0.00 | 72 | 1006.5 |
| 20260510042909 | 10 | 297 | 0.0 | 0.0 | 0.00 | 0.00 | 0.00 | 72 | 1006.2 |
| 20260510042404 | 10 | 281 | 1.6 | 3.2 | 0.00 | 0.00 | 0.00 | 72 | 1006.5 |
| 20260510041900 | 10 | 296 | 1.6 | 1.6 | 0.00 | 0.00 | 0.00 | 72 | 1006.2 |
| 20260510041357 | 10 | 351 | 3.2 | 3.2 | 0.00 | 0.00 | 0.00 | 72 | 1005.8 |
| 20260510040855 | 10 | 346 | 3.2 | 3.2 | 0.00 | 0.00 | 0.00 | 73 | 1005.8 |
| 20260510040352 | 10 | 315 | 3.2 | 3.2 | 0.00 | 0.00 | 0.00 | 73 | 1005.9 |
| 20260510035847 | 10 | 339 | 0.0 | 0.0 | 0.00 | 0.20 | 0.20 | 73 | 1005.9 |
| 20260510035343 | 10 | 334 | 1.6 | 1.6 | 0.00 | 0.20 | 0.20 | 72 | 1005.6 |
| 20260510034839 | 10 | 353 | 0.0 | 0.0 | 0.00 | 0.20 | 0.20 | 72 | 1005.8 |
| 20260510034337 | 10 | 317 | 0.0 | 0.0 | 0.00 | 0.20 | 0.20 | 73 | 1005.7 |
| 20260510033833 | 10 | 324 | 1.6 | 1.6 | 0.00 | 0.20 | 0.20 | 75 | 1005.7 |
| 20260510033330 | 10 | 327 | 4.8 | 4.8 | 0.00 | 0.20 | 0.20 | 77 | 1005.7 |
| 20260510032827 | 10 | 333 | 1.6 | 3.2 | 0.00 | 0.20 | 0.20 | 80 | 1006.0 |
| 20260510032324 | 10 | 316 | 0.0 | 1.6 | 0.00 | 0.20 | 0.20 | 82 | 1006.1 |
| 20260510031819 | 10 | 269 | 6.4 | 6.4 | 0.00 | 0.20 | 0.20 | 84 | 1005.8 |
| 20260510031315 | 10 | 345 | 3.2 | 3.2 | 0.00 | 0.20 | 0.20 | 86 | 1005.7 |
| 20260510030809 | 10 | 285 | 3.2 | 3.2 | 0.00 | 0.20 | 0.20 | 87 | 1005.8 |
| 20260510030306 | 10 | 308 | 1.6 | 1.6 | 0.00 | 0.20 | 0.20 | 87 | 1006.0 |
| 20260510025803 | 10 | 300 | 1.6 | 3.2 | 0.00 | 0.20 | 0.20 | 86 | 1005.8 |
| 20260510025301 | 10 | 290 | 0.0 | 1.6 | 0.00 | 0.20 | 0.20 | 86 | 1005.7 |
| 20260510024757 | 10 | 289 | 1.6 | 1.6 | 0.00 | 0.20 | 0.20 | 86 | 1005.6 |
| 20260510024254 | 10 | 308 | 1.6 | 1.6 | 0.00 | 0.20 | 0.20 | 86 | 1005.8 |
| 20260510023750 | 10 | 327 | 1.6 | 1.6 | 0.00 | 0.20 | 0.20 | 85 | 1005.5 |
| 20260510023247 | 10 | 260 | 3.2 | 3.2 | 0.00 | 0.20 | 0.20 | 85 | 1005.3 |
| 20260510022743 | 10 | 273 | 4.8 | 4.8 | 0.00 | 0.20 | 0.20 | 84 | 1005.2 |
| 20260510022243 | 10 | 253 | 1.6 | 1.6 | 0.00 | 0.20 | 0.20 | 85 | 1005.2 |
| 20260510021743 | 10 | 277 | 1.6 | 1.6 | 0.00 | 0.20 | 0.20 | 85 | 1004.8 |
| 20260510021241 | 9 | 258 | 6.4 | 6.4 | 0.00 | 0.20 | 0.20 | 85 | 1004.9 |
| 20260510020736 | 9 | 258 | 3.2 | 3.2 | 0.00 | 0.20 | 0.20 | 85 | 1004.8 |
| 20260510020231 | 9 | 254 | 3.2 | 3.2 | 0.00 | 0.20 | 0.20 | 85 | 1004.9 |
| 20260510015727 | 9 | 245 | 6.4 | 6.4 | 0.00 | 0.20 | 0.20 | 85 | 1004.7 |
| 20260510015224 | 9 | 243 | 4.8 | 4.8 | 0.00 | 0.20 | 0.20 | 85 | 1004.6 |
| 20260510014719 | 9 | 259 | 4.8 | 6.4 | 0.00 | 0.20 | 0.20 | 85 | 1004.7 |
| 20260510014217 | 9 | 231 | 3.2 | 4.8 | 0.00 | 0.20 | 0.20 | 84 | 1004.7 |
| 20260510013712 | 9 | 233 | 6.4 | 6.4 | 0.00 | 0.20 | 0.20 | 84 | 1004.2 |
| 20260510013208 | 10 | 233 | 4.8 | 4.8 | 0.00 | 0.20 | 0.20 | 83 | 1004.3 |
| 20260510012708 | 10 | 235 | 8.0 | 9.7 | 0.00 | 0.20 | 0.20 | 83 | 1004.3 |
| 20260510012203 | 10 | 258 | 6.4 | 6.4 | 0.00 | 0.20 | 0.20 | 84 | 1004.3 |
| 20260510011658 | 10 | 226 | 3.2 | 3.2 | 0.00 | 0.20 | 0.20 | 83 | 1004.2 |
| 20260510011154 | 9 | 238 | 4.8 | 4.8 | 0.00 | 0.20 | 0.20 | 83 | 1004.1 |
| 20260510010650 | 9 | 242 | 9.7 | 11.3 | 0.00 | 0.20 | 0.20 | 83 | 1004.2 |
| 20260510010148 | 9 | 259 | 6.4 | 6.4 | 0.00 | 0.20 | 0.20 | 83 | 1004.3 |
| 20260510005643 | 9 | 222 | 6.4 | 9.7 | 0.00 | 0.20 | 0.20 | 83 | 1004.3 |
| 20260510005141 | 9 | 230 | 6.4 | 6.4 | 0.00 | 0.20 | 0.20 | 84 | 1004.3 |
| 20260510004639 | 9 | 251 | 6.4 | 9.7 | 0.00 | 0.20 | 0.20 | 83 | 1004.0 |
| 20260510004137 | 10 | 207 | 16.1 | 20.9 | 0.00 | 0.20 | 0.20 | 82 | 1003.8 |
| 20260510003633 | 10 | 224 | 9.7 | 14.5 | 0.00 | 0.20 | 0.20 | 83 | 1003.8 |
| 20260510003129 | 10 | 198 | 9.7 | 9.7 | 0.00 | 0.20 | 0.20 | 82 | 1003.6 |
| 20260510002629 | 10 | 217 | 6.4 | 6.4 | 0.00 | 0.20 | 0.20 | 82 | 1003.6 |
| 20260510002126 | 10 | 254 | 11.3 | 12.9 | 0.00 | 0.20 | 0.20 | 82 | 1003.6 |
| 20260510001623 | 10 | 241 | 8.0 | 9.7 | 0.00 | 0.20 | 0.20 | 82 | 1003.8 |
| 20260510001122 | 10 | 242 | 6.4 | 11.3 | 0.00 | 0.20 | 0.20 | 82 | 1003.4 |
| 20260510000622 | 10 | 253 | 4.8 | 4.8 | 0.00 | 0.20 | 0.20 | 82 | 1003.2 |
| 20260510000120 | 10 | 237 | 8.0 | 9.7 | 0.00 | 0.20 | 0.20 | 82 | 1003.1 |
| 20260509235616 | 10 | 251 | 9.7 | 14.5 | 0.00 | 0.20 | 0.20 | 82 | 1003.0 |
| 20260509235113 | 10 | 268 | 9.7 | 12.9 | 0.00 | 0.20 | 0.20 | 83 | 1002.7 |
| 20260509234608 | 10 | 224 | 9.7 | 12.9 | 0.00 | 0.20 | 0.20 | 84 | 1003.0 |
| 20260509234107 | 11 | 241 | 11.3 | 12.9 | 0.00 | 0.20 | 0.20 | 84 | 1002.6 |
| 20260509233604 | 11 | 261 | 6.4 | 6.4 | 0.00 | 0.20 | 0.20 | 83 | 1002.4 |
| 20260509233101 | 11 | 220 | 1.6 | 1.6 | 0.00 | 0.20 | 0.20 | 84 | 1002.3 |
| 20260509232557 | 11 | 233 | 6.4 | 9.7 | 0.00 | 0.20 | 0.20 | 83 | 1002.1 |
| 20260509232054 | 12 | 206 | 9.7 | 14.5 | 0.00 | 0.20 | 0.20 | 82 | 1002.1 |
| 20260509231551 | 11 | 296 | 9.7 | 12.9 | 0.00 | 0.20 | 0.20 | 84 | 1002.2 |
| 20260509231049 | 11 | 236 | 9.7 | 12.9 | 0.00 | 0.20 | 0.20 | 86 | 1002.4 |
| 20260509230545 | 10 | 193 | 4.8 | 4.8 | 0.00 | 0.20 | 0.20 | 89 | 1002.3 |
| 20260509230043 | 10 | 183 | 4.8 | 4.8 | 0.00 | 0.20 | 0.20 | 91 | 1002.3 |
| 20260509225537 | 10 | 201 | 1.6 | 1.6 | 0.13 | 0.20 | 0.20 | 90 | 1002.9 |
| 20260509225033 | 9 | 222 | 3.2 | 3.2 | 0.30 | 0.20 | 0.20 | 90 | 1002.9 |
| 20260509224529 | 9 | 185 | 6.4 | 4.8 | 0.30 | 0.18 | 0.18 | 90 | 1002.3 |
| 20260509224026 | 9 | 65 | 4.8 | 4.8 | 0.48 | 0.18 | 0.18 | 89 | 1002.9 |
| 20260509223523 | 9 | 186 | 3.2 | 3.2 | 0.66 | 0.13 | 0.13 | 88 | 1003.4 |
| 20260509223021 | 10 | 152 | 1.6 | 1.6 | 0.61 | 0.10 | 0.10 | 86 | 1003.1 |
| 20260509222516 | 10 | 224 | 3.2 | 3.2 | 0.13 | 0.03 | 0.03 | 84 | 1003.3 |
| 20260509222012 | 10 | 238 | 3.2 | 1.6 | 0.00 | 0.00 | 0.00 | 83 | 1002.6 |
| 20260509221508 | 10 | 144 | 0.0 | 1.6 | 0.00 | 0.00 | 0.00 | 82 | 1002.4 |
| 20260509221004 | 10 | 138 | 1.6 | 1.6 | 0.00 | 0.00 | 0.00 | 82 | 1002.4 |
| 20260509220501 | 10 | 115 | 4.8 | 4.8 | 0.00 | 0.00 | 0.00 | 81 | 1002.7 |
| 20260509215956 | 10 | 136 | 6.4 | 6.4 | 0.00 | 0.00 | 0.00 | 80 | 1002.8 |
| 20260509215452 | 10 | 134 | 1.6 | 3.2 | 0.00 | 0.00 | 0.00 | 80 | 1002.9 |
| 20260509214950 | 10 | 147 | 6.4 | 6.4 | 0.00 | 0.00 | 0.00 | 79 | 1003.0 |
| 20260509214447 | 10 | 121 | 6.4 | 9.7 | 0.00 | 0.00 | 0.00 | 79 | 1003.0 |
| 20260509213943 | 10 | 133 | 9.7 | 11.3 | 0.00 | 0.00 | 0.00 | 78 | 1003.0 |
| 20260509213439 | 10 | 126 | 4.8 | 4.8 | 0.00 | 0.00 | 0.00 | 78 | 1003.1 |
| 20260509212937 | 10 | 138 | 3.2 | 4.8 | 0.00 | 0.00 | 0.00 | 78 | 1002.8 |
| 20260509212434 | 10 | 147 | 8.0 | 9.7 | 0.00 | 0.00 | 0.00 | 77 | 1002.8 |
| 20260509211930 | 10 | 150 | 12.9 | 16.1 | 0.00 | 0.00 | 0.00 | 77 | 1002.9 |
| 20260509211426 | 10 | 133 | 6.4 | 6.4 | 0.00 | 0.00 | 0.00 | 77 | 1002.8 |
| 20260509210923 | 10 | 149 | 8.0 | 11.3 | 0.00 | 0.00 | 0.00 | 78 | 1002.8 |
| 20260509210420 | 10 | 154 | 6.4 | 6.4 | 0.00 | 0.00 | 0.00 | 78 | 1002.7 |
| 20260509205915 | 10 | 143 | 6.4 | 9.7 | 0.00 | 0.00 | 0.00 | 79 | 1002.7 |
| 20260509205415 | 10 | 146 | 9.7 | 12.9 | 0.00 | 0.00 | 0.00 | 78 | 1003.3 |
| 20260509204911 | 10 | 135 | 8.0 | 9.7 | 0.00 | 0.00 | 0.00 | 79 | 1003.4 |
| 20260509204408 | 10 | 155 | 4.8 | 9.7 | 0.00 | 0.00 | 0.00 | 78 | 1003.5 |
| 20260509203904 | 10 | 151 | 4.8 | 4.8 | 0.00 | 0.00 | 0.00 | 79 | 1003.4 |
| 20260509203400 | 10 | 133 | 9.7 | 12.9 | 0.00 | 0.00 | 0.00 | 79 | 1003.3 |
| 20260509202858 | 10 | 126 | 9.7 | 12.9 | 0.00 | 0.00 | 0.00 | 79 | 1003.4 |
| 20260509202353 | 10 | 120 | 9.7 | 12.9 | 0.00 | 0.00 | 0.00 | 80 | 1003.3 |
| 20260509201849 | 10 | 130 | 12.9 | 12.9 | 0.00 | 0.00 | 0.00 | 78 | 1003.3 |
| 20260509201344 | 10 | 118 | 8.0 | 11.3 | 0.00 | 0.00 | 0.00 | 77 | 1003.4 |
| 20260509200842 | 10 | 113 | 3.2 | 3.2 | 0.00 | 0.00 | 0.00 | 78 | 1003.5 |
| 20260509200336 | 10 | 142 | 8.0 | 11.3 | 0.00 | 0.00 | 0.00 | 79 | 1003.6 |
| 20260509195834 | 10 | 87 | 1.6 | 1.6 | 0.00 | 0.00 | 0.00 | 79 | 1003.6 |
| 20260509195334 | 10 | 122 | 9.7 | 11.3 | 0.00 | 0.00 | 0.00 | 76 | 1003.8 |
| 20260509194834 | 10 | 128 | 3.2 | 3.2 | 0.00 | 0.00 | 0.00 | 76 | 1003.9 |
| 20260509194330 | 10 | 107 | 3.2 | 3.2 | 0.00 | 0.00 | 0.00 | 76 | 1004.0 |
| 20260509193827 | 11 | 143 | 3.2 | 3.2 | 0.00 | 0.00 | 0.00 | 76 | 1004.0 |
| 20260509193327 | 11 | 150 | 6.4 | 6.4 | 0.00 | 0.00 | 0.00 | 76 | 1004.0 |
| 20260509192823 | 11 | 117 | 3.2 | 3.2 | 0.00 | 0.00 | 0.00 | 76 | 1003.8 |
| 20260509192319 | 11 | 136 | 9.7 | 12.9 | 0.00 | 0.00 | 0.00 | 76 | 1004.0 |
| 20260509191814 | 11 | 131 | 11.3 | 12.9 | 0.00 | 0.00 | 0.00 | 74 | 1003.7 |
| 20260509191311 | 12 | 146 | 6.4 | 9.7 | 0.00 | 0.00 | 0.00 | 74 | 1003.9 |
| 20260509190806 | 12 | 103 | 9.7 | 14.5 | 0.00 | 0.00 | 0.00 | 71 | 1004.1 |
| 20260509190304 | 13 | 164 | 4.8 | 6.4 | 0.00 | 0.00 | 0.00 | 70 | 1004.2 |
| 20260509185801 | 13 | 140 | 9.7 | 11.3 | 0.00 | 0.00 | 0.00 | 71 | 1004.1 |
| 20260509185257 | 13 | 162 | 11.3 | 14.5 | 0.00 | 0.00 | 0.00 | 71 | 1004.1 |
| 20260509184755 | 13 | 146 | 11.3 | 16.1 | 0.00 | 0.00 | 0.00 | 70 | 1003.8 |
| 20260509184252 | 13 | 111 | 6.4 | 6.4 | 0.00 | 0.00 | 0.00 | 70 | 1004.0 |
| 20260509183748 | 13 | 102 | 9.7 | 12.9 | 0.00 | 0.00 | 0.00 | 70 | 1004.2 |
| 20260509183244 | 12 | 132 | 11.3 | 12.9 | 0.00 | 0.00 | 0.00 | 73 | 1004.2 |
| 20260509182739 | 12 | 159 | 4.8 | 9.7 | 0.00 | 0.00 | 0.00 | 74 | 1004.4 |
| 20260509182237 | 12 | 108 | 12.9 | 14.5 | 0.00 | 0.00 | 0.00 | 72 | 1004.5 |
| 20260509181734 | 12 | 145 | 9.7 | 12.9 | 0.00 | 0.00 | 0.00 | 74 | 1004.4 |
| 20260509181232 | 12 | 138 | 12.9 | 12.9 | 0.00 | 0.00 | 0.00 | 71 | 1004.5 |
| 20260509180729 | 12 | 127 | 11.3 | 14.5 | 0.00 | 0.00 | 0.00 | 72 | 1004.8 |
| 20260509180225 | 12 | 133 | 8.0 | 11.3 | 0.00 | 0.00 | 0.00 | 72 | 1004.8 |
| 20260509175721 | 12 | 110 | 6.4 | 6.4 | 0.00 | 0.00 | 0.00 | 71 | 1004.8 |
| 20260509175218 | 11 | 122 | 3.2 | 6.4 | 0.00 | 0.00 | 0.00 | 74 | 1004.8 |
| 20260509174714 | 11 | 147 | 12.9 | 14.5 | 0.00 | 0.00 | 0.00 | 73 | 1004.9 |
| 20260509174209 | 11 | 119 | 12.9 | 14.5 | 0.00 | 0.00 | 0.00 | 73 | 1005.0 |
| 20260509173706 | 12 | 128 | 9.7 | 12.9 | 0.00 | 0.00 | 0.00 | 72 | 1005.0 |
| 20260509173201 | 11 | 146 | 9.7 | 11.3 | 0.00 | 0.00 | 0.00 | 72 | 1005.1 |
| 20260509172657 | 11 | 124 | 9.7 | 11.3 | 0.00 | 0.00 | 0.00 | 73 | 1005.1 |
| 20260509172154 | 11 | 136 | 9.7 | 11.3 | 0.00 | 0.00 | 0.00 | 73 | 1005.3 |
| 20260509171649 | 11 | 136 | 12.9 | 12.9 | 0.00 | 0.00 | 0.00 | 71 | 1005.2 |
| 20260509171146 | 12 | 149 | 14.5 | 16.1 | 0.00 | 0.00 | 0.00 | 71 | 1005.1 |
| 20260509170643 | 12 | 149 | 12.9 | 14.5 | 0.00 | 0.00 | 0.00 | 70 | 1005.1 |
| 20260509170139 | 12 | 144 | 11.3 | 14.5 | 0.00 | 0.00 | 0.00 | 71 | 1005.4 |
| 20260509165637 | 12 | 140 | 12.9 | 14.5 | 0.00 | 0.00 | 0.00 | 71 | 1005.5 |
| 20260509165133 | 11 | 100 | 6.4 | 6.4 | 0.00 | 0.00 | 0.00 | 72 | 1005.5 |
| 20260509164629 | 11 | 143 | 11.3 | 12.9 | 0.00 | 0.00 | 0.00 | 71 | 1005.6 |
| 20260509164125 | 11 | 141 | 9.7 | 11.3 | 0.00 | 0.00 | 0.00 | 72 | 1005.6 |
| 20260509163623 | 11 | 124 | 14.5 | 16.1 | 0.00 | 0.00 | 0.00 | 70 | 1005.7 |
| 20260509163118 | 11 | 113 | 4.8 | 9.7 | 0.00 | 0.00 | 0.00 | 70 | 1005.8 |
| 20260509162616 | 11 | 130 | 11.3 | 14.5 | 0.00 | 0.00 | 0.00 | 69 | 1005.9 |
| 20260509162112 | 12 | 147 | 11.3 | 14.5 | 0.00 | 0.00 | 0.00 | 69 | 1005.7 |
| 20260509161608 | 12 | 132 | 14.5 | 14.5 | 0.00 | 0.00 | 0.00 | 67 | 1005.6 |
| 20260509161108 | 12 | 139 | 9.7 | 11.3 | 0.00 | 0.00 | 0.00 | 70 | 1005.7 |
| 20260509160605 | 12 | 117 | 9.7 | 11.3 | 0.00 | 0.00 | 0.00 | 66 | 1006.2 |
| 20260509160100 | 12 | 154 | 3.2 | 4.8 | 0.00 | 0.00 | 0.00 | 67 | 1005.9 |
| 20260509155556 | 11 | 103 | 3.2 | 3.2 | 0.00 | 0.00 | 0.00 | 69 | 1006.1 |
| 20260509155053 | 12 | 167 | 9.7 | 11.3 | 0.00 | 0.00 | 0.00 | 66 | 1006.1 |
| 20260509154549 | 11 | 151 | 8.0 | 9.7 | 0.00 | 0.00 | 0.00 | 68 | 1005.8 |
| 20260509154046 | 11 | 137 | 11.3 | 12.9 | 0.00 | 0.00 | 0.00 | 70 | 1005.9 |
| 20260509153543 | 11 | 135 | 16.1 | 17.7 | 0.00 | 0.00 | 0.00 | 69 | 1006.0 |
| 20260509153040 | 11 | 115 | 6.4 | 9.7 | 0.00 | 0.00 | 0.00 | 68 | 1006.1 |
| 20260509152536 | 11 | 154 | 11.3 | 12.9 | 0.00 | 0.00 | 0.00 | 68 | 1006.1 |
| 20260509152033 | 11 | 129 | 11.3 | 11.3 | 0.00 | 0.00 | 0.00 | 67 | 1006.0 |
| 20260509151529 | 11 | 118 | 9.7 | 9.7 | 0.00 | 0.00 | 0.00 | 68 | 1006.2 |
| 20260509151027 | 11 | 125 | 9.7 | 11.3 | 0.00 | 0.00 | 0.00 | 68 | 1006.5 |
| 20260509150524 | 11 | 134 | 4.8 | 4.8 | 0.00 | 0.00 | 0.00 | 70 | 1006.6 |
| 20260509150023 | 11 | 143 | 11.3 | 12.9 | 0.00 | 0.00 | 0.00 | 69 | 1006.8 |
| 20260509145518 | 10 | 109 | 1.6 | 3.2 | 0.00 | 0.00 | 0.00 | 69 | 1006.8 |
| 20260509145013 | 10 | 124 | 4.8 | 6.4 | 0.00 | 0.00 | 0.00 | 69 | 1006.7 |
| 20260509144511 | 10 | 115 | 4.8 | 4.8 | 0.00 | 0.00 | 0.00 | 70 | 1006.8 |
| 20260509144008 | 9 | 158 | 4.8 | 4.8 | 0.00 | 0.00 | 0.00 | 71 | 1007.0 |
| 20260509143505 | 9 | 149 | 11.3 | 11.3 | 0.00 | 0.00 | 0.00 | 70 | 1007.0 |
| 20260509143003 | 9 | 137 | 6.4 | 6.4 | 0.00 | 0.00 | 0.00 | 69 | 1006.8 |
| 20260509142458 | 8 | 157 | 8.0 | 6.4 | 0.00 | 0.00 | 0.00 | 70 | 1006.9 |
| 20260509141953 | 9 | 120 | 14.5 | 16.1 | 0.00 | 0.00 | 0.00 | 69 | 1007.0 |
| 20260509141450 | 10 | 118 | 9.7 | 11.3 | 0.00 | 0.00 | 0.00 | 67 | 1006.9 |
| 20260509140947 | 9 | 133 | 4.8 | 4.8 | 0.00 | 0.00 | 0.00 | 69 | 1007.0 |
| 20260509140443 | 9 | 145 | 11.3 | 12.9 | 0.00 | 0.00 | 0.00 | 68 | 1007.0 |
| 20260509135942 | 10 | 128 | 9.7 | 11.3 | 0.00 | 0.00 | 0.00 | 67 | 1007.1 |
| 20260509135439 | 10 | 133 | 8.0 | 9.7 | 0.00 | 0.00 | 0.00 | 66 | 1006.9 |
| 20260509134936 | 10 | 153 | 6.4 | 9.7 | 0.00 | 0.00 | 0.00 | 66 | 1007.0 |
| 20260509134434 | 10 | 150 | 9.7 | 11.3 | 0.00 | 0.00 | 0.00 | 64 | 1007.2 |
| 20260509133931 | 10 | 138 | 8.0 | 9.7 | 0.00 | 0.00 | 0.00 | 64 | 1007.2 |
| 20260509133427 | 10 | 116 | 3.2 | 4.8 | 0.00 | 0.00 | 0.00 | 65 | 1007.1 |
| 20260509132926 | 10 | 136 | 6.4 | 4.8 | 0.00 | 0.00 | 0.00 | 65 | 1007.1 |
| 20260509132423 | 10 | 157 | 1.6 | 1.6 | 0.00 | 0.00 | 0.00 | 64 | 1007.1 |
| 20260509131920 | 10 | 152 | 3.2 | 3.2 | 0.00 | 0.00 | 0.00 | 64 | 1007.2 |
| 20260509131417 | 10 | 177 | 3.2 | 3.2 | 0.00 | 0.00 | 0.00 | 65 | 1007.3 |
| 20260509130914 | 10 | 123 | 8.0 | 9.7 | 0.00 | 0.00 | 0.00 | 65 | 1007.0 |
| 20260509130409 | 10 | 137 | 6.4 | 6.4 | 0.00 | 0.00 | 0.00 | 64 | 1007.1 |
| 20260509125906 | 9 | 120 | 0.0 | 0.0 | 0.00 | 0.00 | 0.00 | 65 | 1007.2 |
| 20260509125403 | 8 | 138 | 8.0 | 9.7 | 0.00 | 0.00 | 0.00 | 64 | 1007.1 |
| 20260509124859 | 8 | 120 | 4.8 | 6.4 | 0.00 | 0.00 | 0.00 | 65 | 1007.2 |
| 20260509124356 | 9 | 126 | 6.4 | 6.4 | 0.00 | 0.00 | 0.00 | 65 | 1007.2 |
| 20260509123854 | 8 | 118 | 6.4 | 6.4 | 0.00 | 0.00 | 0.00 | 65 | 1006.9 |
| 20260509123351 | 8 | 61 | 1.6 | 1.6 | 0.00 | 0.00 | 0.00 | 66 | 1007.1 |
| 20260509122847 | 8 | 83 | 1.6 | 1.6 | 0.00 | 0.00 | 0.00 | 66 | 1007.1 |
| 20260509122344 | 8 | 152 | 8.0 | 9.7 | 0.00 | 0.00 | 0.00 | 64 | 1007.3 |
| 20260509121840 | 8 | 126 | 6.4 | 6.4 | 0.00 | 0.00 | 0.00 | 63 | 1007.3 |
| 20260509121338 | 8 | 135 | 3.2 | 3.2 | 0.00 | 0.00 | 0.00 | 65 | 1007.4 |
| 20260509120836 | 8 | 51 | 0.0 | 0.0 | 0.00 | 0.00 | 0.00 | 65 | 1007.5 |
| 20260509120333 | 8 | 50 | 0.0 | 0.0 | 0.00 | 0.00 | 0.00 | 66 | 1007.4 |